Location: Newark
(36.1358°N, 115.1208°W)
Time: 15:59:38
(UTC+00:00)

Altair - All Passes

Search period start: 19 February 2020 00:00
Search period end: 29 February 2020 00:00
Orbit: 1502 x 1682 km, 47.2° (Epoch: 18 February)

Date Brightness Start Highest point End Pass type
(mag) Time Alt. Az. Time Alt. Az. Time Alt. Az.
19 Feb - 07:15:48 10° S 07:23:40 32° SE 07:31:44 10° ENE night (unlit)
19 Feb - 09:18:11 10° WSW 09:27:38 84° NNW 09:37:32 10° NE visible
19 Feb - 11:24:17 10° W 11:33:29 46° N 11:43:00 10° ENE visible
19 Feb - 13:30:39 10° WNW 13:40:10 50° NNE 13:49:56 10° E visible
19 Feb - 15:35:45 10° WNW 15:45:49 84° SW 15:56:01 10° SE daylight
19 Feb - 17:41:52 10° WNW 17:49:45 27° SW 17:57:39 10° S daylight
20 Feb - 06:51:05 10° S 06:58:36 29° SE 07:06:19 10° ENE night (unlit)
20 Feb - 08:53:02 10° SW 09:02:27 89° NW 09:12:18 10° ENE visible
20 Feb - 10:58:58 10° W 11:08:09 47° NNW 11:17:42 10° ENE visible
20 Feb - 13:05:24 10° WNW 13:14:51 48° NNE 13:24:32 10° E visible
20 Feb - 15:10:33 10° WNW 15:20:36 89° SSW 15:30:49 10° SE daylight
20 Feb - 17:16:25 10° WNW 17:24:40 30° SW 17:32:56 10° S daylight
21 Feb - 06:26:25 10° S 06:33:33 26° SE 06:40:52 10° ENE night (unlit)
21 Feb - 08:27:54 10° SW 08:37:16 86° SE 08:47:04 10° ENE visible
21 Feb - 10:33:40 10° W 10:42:51 49° NNW 10:52:24 10° ENE visible
21 Feb - 12:40:09 10° WNW 12:49:30 47° NNE 12:59:09 10° E visible
21 Feb - 14:45:21 10° NW 14:55:23 86° NE 15:05:36 10° SE daylight
21 Feb - 16:51:01 10° WNW 16:59:33 33° SW 17:08:10 10° S daylight
22 Feb - 06:01:49 10° S 06:08:31 23° SE 06:15:21 10° ENE night (unlit)
22 Feb - 08:02:47 10° SW 08:12:07 80° SE 08:21:50 10° ENE visible
22 Feb - 10:08:22 10° W 10:17:33 50° NNW 10:27:06 10° ENE visible
22 Feb - 12:14:55 10° WNW 12:24:11 46° N 12:33:45 10° E visible
22 Feb - 14:20:10 10° NW 14:30:09 81° NNE 14:40:21 10° ESE daylight
22 Feb - 16:25:39 10° WNW 16:34:27 36° SW 16:43:19 10° SSE daylight
23 Feb - 05:37:18 10° SSE 05:43:29 20° SE 05:49:46 10° E night (unlit)
23 Feb - 07:37:42 10° SW 07:46:58 75° SE 07:56:36 10° ENE visible
23 Feb - 09:43:04 10° W 09:52:15 52° NNW 10:01:49 10° ENE visible
23 Feb - 11:49:39 10° WNW 11:58:51 45° N 12:08:22 10° E visible
23 Feb - 13:54:58 10° NW 14:04:55 77° NNE 14:15:05 10° ESE visible
23 Feb - 16:00:19 10° WNW 16:09:19 39° SW 16:18:27 10° SSE daylight
24 Feb - 05:12:53 10° SSE 05:18:27 18° ESE 05:24:06 10° E night (unlit)
24 Feb - 07:12:39 10° SW 07:21:49 70° SE 07:31:22 10° ENE night (unlit)
24 Feb - 09:17:47 10° W 09:26:58 54° NNW 09:36:32 10° ENE visible
24 Feb - 11:24:23 10° WNW 11:33:31 44° N 11:42:58 10° ENE visible
24 Feb - 13:29:47 10° NW 13:39:40 73° NNE 13:49:49 10° ESE visible
24 Feb - 15:35:01 10° WNW 15:44:12 43° SW 15:53:31 10° SSE daylight
25 Feb - 04:48:38 10° SSE 04:53:26 15° ESE 04:58:17 10° E night (unlit)
25 Feb - 06:47:36 10° SW 06:56:42 64° SE 07:06:08 10° ENE night (unlit)
25 Feb - 08:52:30 10° W 09:01:42 56° NNW 09:11:17 10° ENE visible
25 Feb - 10:59:07 10° WNW 11:08:11 44° N 11:17:36 10° ENE visible
25 Feb - 13:04:36 10° NW 13:14:25 69° NNE 13:24:31 10° ESE visible
25 Feb - 15:09:44 10° WNW 15:19:04 47° SW 15:28:34 10° SSE daylight
26 Feb - 04:24:37 10° SSE 04:28:25 13° ESE 04:32:15 10° E night (unlit)
26 Feb - 06:22:36 10° SSW 06:31:35 59° SE 06:40:53 10° ENE night (unlit)
26 Feb - 08:27:14 10° W 08:36:26 58° NNW 08:46:02 10° NE visible
26 Feb - 10:33:50 10° WNW 10:42:52 43° N 10:52:13 10° ENE visible
26 Feb - 12:39:25 10° NW 12:49:10 66° NNE 12:59:12 10° ESE visible
26 Feb - 14:44:28 10° WNW 14:53:56 51° SW 15:03:34 10° SSE daylight
26 Feb - 16:55:12 10° WSW 16:57:11 11° WSW 16:59:10 10° SW daylight
27 Feb - 04:01:08 10° SE 04:03:25 11° ESE 04:05:41 10° ESE night (unlit)
27 Feb - 05:57:37 10° SSW 06:06:29 54° SE 06:15:37 10° ENE night (unlit)
27 Feb - 08:01:58 10° WSW 08:11:11 61° NNW 08:20:47 10° NE visible
27 Feb - 10:08:33 10° WNW 10:17:32 43° N 10:26:51 10° ENE visible
27 Feb - 12:14:14 10° NW 12:23:54 62° NNE 12:33:52 10° ESE visible
27 Feb - 14:19:13 10° WNW 14:28:47 56° SW 14:38:33 10° SSE daylight
27 Feb - 16:28:20 10° W 16:32:08 13° WSW 16:35:57 10° SW daylight
28 Feb - 05:32:39 10° SSW 05:41:23 50° SE 05:50:21 10° ENE night (unlit)
28 Feb - 07:36:44 10° WSW 07:45:57 64° NNW 07:55:33 10° NE visible
28 Feb - 09:43:17 10° WNW 09:52:12 43° N 10:01:29 10° ENE visible
28 Feb - 11:49:02 10° NW 11:58:38 60° NNE 12:08:31 10° ESE visible
28 Feb - 13:53:59 10° WNW 14:03:38 60° SW 14:13:30 10° SSE daylight
28 Feb - 16:02:11 10° W 16:07:04 15° WSW 16:12:01 10° SSW daylight
